Location: Unspecified
(0.0000°N, 0.0000°E)
Time: 15:29:02
(UTC+00:00)

Altair - All Passes

Search period start: 13 May 2025 00:00
Search period end: 23 May 2025 00:00
Orbit: 1501 x 1682 km, 47.2° (Epoch: 13 May)

Date Brightness Start Highest point End Pass type
(mag) Time Alt. Az. Time Alt. Az. Time Alt. Az.
13 May - 04:33:24 10° S 04:41:24 31° SE 04:49:35 10° ENE visible
13 May - 06:36:38 10° SW 06:45:58 57° NW 06:55:40 10° NNE daylight
13 May - 15:23:48 10° NNE 15:26:30 11° NE 15:29:11 10° ENE daylight
13 May - 17:22:11 10° NNW 17:31:55 66° NE 17:41:16 10° SE daylight
13 May - 19:28:58 10° W 19:36:29 26° SW 19:43:53 10° S visible
14 May - 04:08:34 10° S 04:16:09 27° SE 04:23:52 10° ENE visible
14 May - 06:11:19 10° SW 06:20:43 64° NW 06:30:31 10° NNE daylight
14 May - 08:23:52 10° WNW 08:26:12 11° NW 08:28:33 10° NNW daylight
14 May - 16:57:02 10° NNW 17:06:41 59° NE 17:15:58 10° SE daylight
14 May - 19:03:14 10° WNW 19:11:14 29° SW 19:19:03 10° S visible
15 May - 03:43:48 10° S 03:50:53 24° SE 03:58:06 10° E visible
15 May - 05:46:02 10° SW 05:55:30 71° NW 06:05:20 10° NNE daylight
15 May - 07:56:51 10° WNW 08:00:49 13° NW 08:04:50 10° NNW daylight
15 May - 16:31:55 10° NNW 16:41:27 52° NE 16:50:37 10° SE daylight
15 May - 18:37:36 10° WNW 18:46:00 33° SW 18:54:11 10° SSE visible
16 May - 03:19:05 10° S 03:25:36 21° SE 03:32:13 10° E visible
16 May - 05:20:48 10° SW 05:30:16 79° NW 05:40:08 10° NE visible
16 May - 07:30:26 10° WNW 07:35:26 15° NW 07:40:33 10° NNW daylight
16 May - 16:06:50 10° NNW 16:16:12 47° NE 16:25:14 10° ESE daylight
16 May - 18:12:00 10° WNW 18:20:45 38° SW 18:29:16 10° SSE visible
17 May - 02:54:29 10° S 03:00:19 18° SE 03:06:13 10° E visible
17 May - 04:55:35 10° SW 05:05:03 88° NW 05:14:54 10° NE visible
17 May - 07:04:17 10° W 07:10:05 17° NW 07:16:02 10° N daylight
17 May - 15:41:46 10° NNW 15:50:57 42° NE 15:59:48 10° ESE daylight
17 May - 17:46:28 10° WNW 17:55:32 43° SW 18:04:19 10° SSE daylight
18 May - 02:30:02 10° SSE 02:35:01 15° SE 02:40:03 10° E visible
18 May - 04:30:24 10° SW 04:39:50 84° SE 04:49:38 10° NE visible
18 May - 06:38:19 10° W 06:44:45 20° NW 06:51:22 10° N daylight
18 May - 15:16:44 10° NNW 15:25:41 37° NE 15:34:19 10° ESE daylight
18 May - 17:20:59 10° WNW 17:30:17 48° SW 17:39:19 10° SSE daylight
19 May - 02:05:49 10° SSE 02:09:42 13° SE 02:13:36 10° ESE visible
19 May - 04:05:15 10° SW 04:14:37 76° SE 04:24:20 10° NE visible
19 May - 06:12:28 10° W 06:19:26 22° NW 06:26:37 10° N daylight
19 May - 14:51:45 10° NNW 15:00:24 33° NE 15:08:47 10° ESE daylight
19 May - 16:55:32 10° NW 17:05:04 54° SW 17:14:17 10° SSE daylight
20 May - 01:42:14 10° SSE 01:44:22 11° SE 01:46:30 10° ESE visible
20 May - 03:40:08 10° SSW 03:49:24 68° SE 03:59:00 10° NE visible
20 May - 05:46:44 10° W 05:54:09 25° NW 06:01:47 10° N daylight
20 May - 14:26:48 10° N 14:35:07 29° NE 14:43:11 10° ESE daylight
20 May - 16:30:07 10° NW 16:39:50 61° SW 16:49:14 10° SSE daylight
21 May - 03:15:03 10° SSW 03:24:12 60° SE 03:33:39 10° NE visible
21 May - 05:21:04 10° WSW 05:28:51 29° NW 05:36:54 10° N visible
21 May - 14:01:55 10° N 14:09:49 26° NE 14:17:31 10° E daylight
21 May - 16:04:45 10° NW 16:14:37 68° SW 16:24:08 10° SSE daylight
21 May - 18:16:58 10° WSW 18:19:42 11° SW 18:22:25 10° SSW visible
22 May - 02:50:00 10° SSW 02:58:59 53° SE 03:08:16 10° NE visible
22 May - 04:55:29 10° WSW 05:03:34 32° NW 05:11:58 10° NNE visible
22 May - 13:37:04 10° N 13:44:30 23° NE 13:51:46 10° E daylight
22 May - 15:39:25 10° NW 15:49:23 76° SW 15:59:00 10° SE daylight
22 May - 17:50:04 10° WSW 17:54:22 14° SW 17:58:37 10° SSW daylight
